GW5068 Weather Reports


time (UTC)temp
C
wind
direction
speed
KPH
gust
KPH
rain 1hr
cm
rain 24hr
cm
rain mn
cm
humidity
%
barometer
mb
20260507234531 15 166 1.6 9.7 0.00 1.55 1.52 32 1013.3
20260507233021 15 153 0.0 8.0 0.00 1.55 1.52 31 1013.5
20260507231524 14 112 0.0 8.0 0.00 1.55 1.52 33 1013.7
20260507230054 15 3 1.6 12.9 0.00 1.57 1.52 31 1013.9
20260507224543 15 165 0.0 11.3 0.00 1.57 1.52 33 1014.1
20260507223007 15 176 1.6 17.7 0.00 1.57 1.52 30 1014.2
20260507221524 15 183 1.6 11.3 0.00 1.57 1.52 31 1014.6
20260507220029 16 116 0.0 17.7 0.00 1.57 1.52 31 1014.9
20260507214556 17 94 0.0 17.7 0.00 1.57 1.52 33 1015.1
20260507213053 17 218 3.2 12.9 0.00 1.57 1.52 34 1015.2
20260507211555 17 187 3.2 16.1 0.00 1.57 1.52 32 1015.4
20260507210047 16 108 6.4 14.5 0.00 1.57 1.52 39 1015.5
20260507204511 15 43 1.6 11.3 0.00 1.57 1.52 36 1016.0
20260507203038 15 38 1.6 9.7 0.00 1.57 1.52 41 1016.6
20260507201551 15 32 3.2 9.7 0.00 1.57 1.52 37 1017.2
20260507200022 13 112 0.0 8.0 0.00 1.57 1.52 40 1017.4
20260507194548 14 91 0.0 6.4 0.00 1.57 1.52 43 1017.5
20260507193015 13 164 1.6 6.4 0.03 1.57 1.52 41 1017.7
20260507191508 13 152 1.6 6.4 0.03 1.57 1.52 38 1018.0
20260507190022 13 99 0.0 8.0 0.05 1.57 1.52 40 1018.5
20260507184552 14 94 0.0 14.5 0.05 1.57 1.52 41 1018.7
20260507183053 13 110 1.6 16.1 0.05 1.55 1.50 37 1019.1
20260507181516 13 48 0.0 6.4 0.10 1.55 1.50 40 1019.2
20260507180046 13 156 0.0 3.2 0.10 1.52 1.45 40 1019.2
20260507174552 13 165 0.0 6.4 0.15 1.50 1.42 40 1019.3
20260507173016 13 186 0.0 4.8 0.25 1.50 1.42 41 1019.9
20260507171527 13 151 3.2 8.0 0.28 1.42 1.40 39 1020.3
20260507170051 13 207 0.0 6.4 0.38 1.42 1.37 44 1020.6
20260507164501 12 170 3.2 8.0 0.64 1.35 1.30 46 1020.8
20260507163024 11 78 0.0 4.8 0.71 1.24 1.19 51 1021.3
20260507161524 11 151 1.6 6.4 1.04 1.14 1.09 55 1021.6
20260507160021 11 134 1.6 6.4 0.94 1.02 0.97 49 1021.9
20260507154602 10 95 1.6 9.7 0.66 0.71 0.66 53 1022.0
20260507153034 8 163 4.8 9.7 0.46 0.51 0.46 55 1022.2
20260507151554 7 144 3.2 11.3 0.05 0.10 0.05 57 1022.3
20260507150109 7 148 3.2 12.9 0.03 0.08 0.03 59 1022.6
20260507144514 7 173 3.2 9.7 0.00 0.05 0.00 59 1022.4
20260507143036 6 175 1.6 9.7 0.00 0.05 0.00 59 1022.6
20260507141541 6 179 1.6 8.0 0.00 0.05 0.00 59 1022.6
20260507140106 5 175 3.2 11.3 0.00 0.05 0.00 60 1022.6
20260507134507 5 155 3.2 16.1 0.00 0.05 0.00 59 1022.5
20260507133101 4 175 3.2 12.9 0.00 0.05 0.00 58 1022.7
20260507131521 2 157 3.2 11.3 0.00 0.05 0.00 65 1022.6
20260507130029 2 193 3.2 8.0 0.00 0.05 0.00 66 1022.5
20260507124532 1 185 4.8 12.9 0.00 0.05 0.00 69 1022.3
20260507123038 0 307 4.8 16.1 0.00 0.05 0.00 72 1022.2
20260507121542 0 322 3.2 14.5 0.00 0.05 0.00 74 1022.0
20260507120047 0 171 1.6 8.0 0.00 0.05 0.00 75 1022.1
20260507114511 0 151 0.0 9.7 0.00 0.05 0.00 75 1022.2
20260507113052 0 171 3.2 16.1 0.00 0.05 0.00 75 1022.4
20260507111511 -1 233 1.6 6.4 0.00 0.05 0.00 76 1022.6
20260507110033 -1 170 1.6 8.0 0.00 0.05 0.00 78 1022.7
20260507104603 -1 152 0.0 1.6 0.00 0.05 0.00 78 1022.6
20260507103017 -1 143 1.6 6.4 0.00 0.05 0.00 76 1022.6
20260507101548 -1 158 0.0 8.0 0.00 0.05 0.00 76 1022.8
20260507100016 -1 122 0.0 3.2 0.00 0.05 0.00 78 1022.8
20260507094523 -2 102 0.0 4.8 0.00 0.05 0.00 82 1022.8
20260507093038 -2 152 0.0 8.0 0.00 0.05 0.00 80 1022.7
20260507091534 -2 150 0.0 3.2 0.00 0.05 0.00 82 1023.0
20260507090033 -2 113 0.0 6.4 0.00 0.05 0.00 83 1023.2
20260507084541 -2 191 0.0 6.4 0.00 0.05 0.00 84 1023.2
20260507083043 -2 63 1.6 6.4 0.00 0.05 0.00 84 1023.0
20260507081510 -2 155 0.0 3.2 0.00 0.05 0.00 86 1023.2
20260507080021 -3 157 0.0 4.8 0.00 0.05 0.00 89 1023.3
20260507074555 -3 34 1.6 6.4 0.00 0.05 0.00 90 1023.3
20260507073002 -3 39 0.0 1.6 0.00 0.05 0.00 93 1023.5
20260507071522 -3 29 0.0 1.6 0.00 0.05 0.00 93 1023.5
20260507070010 -3 21 0.0 3.2 0.00 0.05 0.00 95 1023.5
20260507064509 -4 167 0.0 1.6 0.00 0.05 0.00 95 1023.4
20260507063027 -3 167 0.0 0.0 0.00 0.05 0.00 95 1023.7
20260507061512 -3 167 0.0 0.0 0.00 0.05 0.00 95 1023.5
20260507060026 -3 167 0.0 1.6 0.00 0.05 0.05 96 1023.4
20260507054612 -3 238 0.0 0.0 0.00 0.05 0.05 96 1023.3
20260507053022 -3 238 0.0 1.6 0.00 0.05 0.05 95 1023.4
20260507051547 -3 238 0.0 0.0 0.00 0.05 0.05 95 1023.4
20260507050058 -3 238 0.0 0.0 0.00 0.05 0.05 94 1023.1
20260507044553 -3 238 0.0 1.6 0.00 0.05 0.05 95 1023.2
20260507043032 -3 238 0.0 0.0 0.00 0.05 0.05 94 1023.2
20260507041504 -3 169 0.0 1.6 0.00 0.05 0.05 94 1023.1
20260507040042 -2 233 0.0 1.6 0.00 0.05 0.05 93 1023.2
20260507034510 -2 233 0.0 3.2 0.00 0.05 0.05 94 1023.2
20260507033047 -2 234 0.0 1.6 0.00 0.05 0.05 94 1023.1
20260507031504 -2 233 0.0 1.6 0.00 0.05 0.05 94 1023.0
20260507030033 -2 233 0.0 1.6 0.00 0.05 0.05 93 1022.8
20260507024556 -2 219 0.0 1.6 0.00 0.05 0.05 93 1022.7
20260507023050 -2 219 0.0 3.2 0.00 0.05 0.05 93 1022.6
20260507021513 -2 224 1.6 3.2 0.00 0.05 0.05 93 1022.5
20260507020107 -1 221 0.0 3.2 0.00 0.05 0.05 92 1022.2
20260507014507 -1 214 0.0 3.2 0.00 0.05 0.05 91 1022.2
20260507013022 -1 221 1.6 4.8 0.00 0.05 0.05 91 1022.3
20260507011554 -1 226 0.0 3.2 0.03 0.05 0.05 91 1022.2
20260507010031 -1 238 0.0 4.8 0.03 0.05 0.05 90 1022.1
20260507004548 -1 230 1.6 4.8 0.03 0.05 0.05 90 1022.0
20260507003022 -1 214 0.0 4.8 0.03 0.05 0.05 89 1021.9
20260507001608 0 221 0.0 3.2 0.00 0.03 0.03 89 1021.9
20260507000057 0 171 0.0 3.2 0.00 0.03 0.03 88 1022.1